Regional Weather Roundup
Issued by NWS Glasgow, MT

Home | Current Version | Previous Version | Text Only | Print | Product List | Glossary On
Versions: 1 2 3 4 5 6 7 8 9 10 11 12 13 14 15 16 17 18 19 20 21 22 23 24 25 26 27 28 29
000
ASUS45 KGGW 312215
RWRGGW
HOURLY WEATHER ROUNDUP FOR NORTHEAST MONTANA
NATIONAL WEATHER SERVICE GLASGOW MONTANA
400 PM MDT FRI OCT 31 2014

NOTE: "FAIR" INDICATES FEW OR NO CLOUDS BELOW 12,000 FEET WITH NO
SIGNIFICANT WEATHER AND/OR OBSTRUCTIONS TO VISISBILITY.

NORTHEAST MONTANA


CITY           SKY/WX    TMP DP  RH WIND       PRES   REMARKS
GLASGOW        PTSUNNY   53  33  46 SE18      29.82F
PLENTYWOOD       N/A     46  28  49 S22         N/A
WOLF POINT     CLOUDY    52  34  50 SE10      29.89F
JORDAN           N/A     56  33  42 SE13      29.81F
WINNETT          N/A     62  32  32 SE6         N/A
SIDNEY         SUNNY     50  28  43 SE18      29.97F
GLENDIVE       PTSUNNY   50  30  46 S23       29.93F
MALTA            N/A     53  37  54 SE7         N/A
SCOBEY           N/A     48  29  48 SE22G30   29.86

FORT PECK REPORTS


CITY           SKY/WX    TMP DP  RH WIND       PRES   REMARKS
THE PINES        N/A     55  36  48 S12         N/A

SOUTHEAST MONTANA


CITY           SKY/WX    TMP DP  RH WIND       PRES   REMARKS
BILLINGS       MOSUNNY   61  30  31 E5        29.81F
MILES CITY     PTSUNNY   56  33  42 SE15G25   29.85F
BAKER          PTSUNNY   48  30  49 SE28G40   29.96F
LIVINGSTON     SUNNY     73  23  15 SW24G32   29.78F

CENTRAL MONTANA


CITY           SKY/WX    TMP DP  RH WIND       PRES   REMARKS
HAVRE          PTSUNNY   53  37  54 E12       29.72F
LEWISTOWN      MOSUNNY   71  28  20 SW16      29.76F
GREAT FALLS    MOSUNNY   69  32  25 W10       29.70S
CUT BANK       PTSUNNY   55  37  50 E6        29.70S
HELENA         CLOUDY    56  35  45 NW5       29.77S
BUTTE          PTSUNNY   65  27  23 S18       29.81F
BOZEMAN        MOSUNNY   69  26  20 SW6       29.79F

WESTERN MONTANA


CITY           SKY/WX    TMP DP  RH WIND       PRES   REMARKS
MISSOULA       MOSUNNY   57  41  55 CALM      29.76F
KALISPELL      NOT AVBL

NORTH DAKOTA


CITY           SKY/WX    TMP DP  RH WIND       PRES   REMARKS
WILLISTON      SUNNY     47  25  42 SE18G25   29.99F
DICKINSON      SUNNY     44  17  33 SE24G38   30.02F
MINOT          MOSUNNY   40  13  33 SE22G30   30.16F
BISMARCK       SUNNY     40  10  29 SE21G32   30.24F

SOUTHERN SASKATCHEWAN


CITY           SKY/WX    TMP DP  RH WIND       PRES   REMARKS
REGINA         PTSUNNY   43  28  56 SE25G36   29.90
MOOSE JAW      PTSUNNY   46  32  57 S18G25    29.85F
ESTEVAN        CLOUDY    41  23  48 SE22G28   30.03F
SWIFT CURRENT  SUNNY     50  34  53 S21G30    29.72F




USA.gov is the U.S. government's official web portal to all federal, state and local government web resources and services.